Lid_Strength_Index
3 3 3 3 3 3 2 2 2 2 2 3 3 3 3 3 3 3 3 3 3 2 2 2 1 0 2 7 6 2 -2 -2 -0 4 6 6 5 5 7 6 6 8 6 6 5 6 6
2 3 3 3 3 3 3 2 2 2 3 3 3 3 3 3 3 3 3 3 4 3 2 2 1 0 4 8 3 -1 -0 0 2 5 6 6 5 4 5 7 7 7 6 6 6 6 6
2 2 3 3 3 2 3 2 2 3 3 3 3 3 3 3 3 3 3 4 4 3 2 2 1 1 5 6 2 2 -0 2 2 3 5 4 3 5 5 8 7 7 7 7 7 6 7
2 2 3 2 3 3 3 3 2 3 3 3 3 3 3 3 4 4 4 4 4 3 2 1 0 2 7 4 2 2 3 4 3 3 4 3 3 5 7 7 7 7 7 9 7 7 6
2 2 3 2 3 2 2 3 3 3 3 4 4 4 4 4 4 4 4 4 3 2 1 0 2 4 6 1 3 2 3 3 4 4 3 3 4 7 7 8 8 8 10 9 8 6 7
2 2 2 2 2 2 2 2 3 3 3 4 4 4 4 4 4 5 4 4 2 1 1 1 1 6 4 4 2 3 3 3 3 4 4 4 5 7 7 8 11 11 10 9 9 7 7
2 3 3 3 3 3 2 2 2 3 3 3 4 4 4 4 4 5 5 3 4 5 3 7 7 7 5 3 2 3 3 3 3 4 6 6 7 8 7 9 9 10 9 9 7 6 7
2 2 3 3 3 3 3 3 2 3 3 4 4 4 4 4 5 5 6 6 5 5 6 5 5 5 5 4 5 4 3 4 5 7 6 7 8 6 7 7 9 9 9 9 7 7 7
3 3 3 3 3 3 3 3 3 3 3 4 4 4 4 5 5 6 6 6 5 4 7 6 5 5 4 3 5 5 3 5 6 7 7 8 7 6 6 8 9 9 9 9 8 7 7
3 3 3 3 3 3 3 3 3 3 3 3 4 4 4 5 6 6 6 4 3 4 8 7 6 5 5 5 6 4 3 4 6 7 7 7 6 7 8 8 8 9 7 8 8 8 10
3 3 3 3 3 3 3 3 3 3 4 4 4 4 5 5 6 5 3 3 5 5 13 7 7 3 5 6 6 5 4 4 6 7 7 8 8 8 9 8 7 8 7 8 8 9 9
3 3 3 3 3 3 3 3 4 3 4 4 4 5 5 6 6 4 4 4 4 8 13 8 6 7 6 6 7 6 5 4 5 7 7 8 7 7 7 7 7 6 7 9 10 10 11
3 3 3 3 3 3 3 3 4 4 4 5 5 6 6 5 5 4 4 4 9 11 7 9 8 7 7 8 7 7 7 7 8 10 10 8 7 7 6 7 7 8 9 12 12 12 12
3 3 4 4 4 3 3 3 4 4 4 5 7 6 5 5 4 4 4 6 12 9 9 7 8 8 9 9 9 8 8 8 7 8 9 10 11 7 7 7 8 9 9 11 15 13 11
3 3 4 4 4 3 3 3 4 4 5 6 6 5 5 3 4 4 4 9 10 9 7 8 8 9 8 8 8 9 8 9 8 7 9 10 10 7 7 6 7 9 10 9 11 12 12
3 3 4 4 4 4 3 3 4 4 5 7 5 3 3 3 4 4 6 11 8 7 7 7 9 8 10 9 8 9 9 7 8 7 7 8 11 8 7 7 8 8 8 11 10 14 14
3 4 4 4 4 4 3 3 4 5 6 7 4 4 3 3 4 4 8 9 8 6 7 8 8 9 9 9 8 9 9 8 7 6 7 7 9 9 7 8 8 10 10 10 10 11 13
4 4 4 4 4 4 4 4 4 5 8 7 4 7 2 4 6 7 7 8 10 8 7 7 7 8 8 9 9 9 9 8 7 7 8 7 8 11 9 7 8 8 9 10 11 12 12
4 4 4 4 4 4 4 4 5 5 7 6 5 5 3 4 8 7 7 8 8 8 9 8 9 8 8 9 10 8 8 6 7 6 8 7 9 12 10 8 7 9 8 8 10 10 11
4 4 4 4 4 4 4 5 5 6 6 6 5 7 5 6 6 7 8 9 9 8 9 8 9 8 8 9 8 9 8 7 6 7 5 5 8 10 12 10 9 10 9 8 9 12 11
4 4 4 4 4 4 4 5 5 6 6 5 7 8 8 7 7 8 8 9 9 10 8 7 8 8 8 9 9 9 8 8 7 6 7 8 11 10 10 9 9 9 9 10 11 9 12
4 3 3 3 4 4 4 4 5 6 6 6 7 7 7 8 9 8 9 9 9 9 8 9 9 8 8 9 9 10 8 8 9 8 8 8 11 10 11 9 9 9 8 8 8 8 9
4 3 4 3 4 4 4 4 5 6 6 6 6 6 6 10 9 8 8 9 9 8 8 7 7 8 8 8 7 7 7 7 8 8 9 9 10 10 12 10 10 11 9 9 8 9 10
4 4 4 4 4 4 4 4 4 5 6 5 6 7 7 9 8 8 9 8 9 9 8 8 7 8 7 6 7 7 8 8 8 9 8 10 10 10 11 10 14 9 7 8 10 10 9
3 4 4 4 4 4 4 4 4 5 6 7 6 7 7 9 8 9 9 9 8 8 9 8 7 7 7 7 8 9 9 9 9 8 9 8 9 10 12 12 10 9 9 9 10 10 8
3 3 3 3 3 4 4 4 4 5 6 6 8 7 7 9 9 8 9 9 8 9 9 8 7 7 7 8 8 12 13 11 11 9 8 8 8 10 10 13 14 11 7 6 7 12 7
4 4 3 3 3 3 4 3 4 4 5 7 7 7 6 8 8 7 8 8 8 9 9 10 8 8 7 8 10 11 11 9 12 12 12 10 10 11 11 13 11 8 6 6 13 12 6
4 4 3 3 3 4 3 4 4 4 4 7 7 6 6 7 7 7 7 7 8 8 9 9 10 8 7 9 9 10 10 9 10 10 10 11 11 11 12 13 14 6 6 9 7 5 5
4 4 4 3 3 4 4 4 4 4 4 6 7 6 6 6 6 6 5 5 6 6 7 8 8 8 6 8 8 8 10 9 10 11 8 11 9 11 10 10 6 5 6 4 4 5 5